Regional Weather Roundup
Issued by NWS

Home | Current Version | Previous Version | Graphics & Text | Print | Product List | Glossary On
Versions: 1 2 3 4 5 6 7 8 9 10 11 12 13 14 15 16 17 18 19 20 21 22 23 24 25 26 27 28 29 30 31 32 33 34 35 36 37 38 39 40 41 42 43 44 45 46 47 48 49 50
000
ASUS43 KLMK 201202
RWRKY
KENTUCKY REGIONAL WEATHER ROUNDUP
NATIONAL WEATHER SERVICE LOUISVILLE KY
800 AM EDT FRI APR 20 2018

NOTE "FAIR" INDICATES FEW OR NO CLOUDS BELOW 12,000 FEET
WITH NO SIGNIFICANT WEATHER AND/OR OBSTRUCTIONS TO VISIBILITY.

KYZ001>023-026-027-061>063-070>075-201300-
WESTERN AND SOUTH CENTRAL KENTUCKY

CITY           SKY/WX    TMP DP  RH WIND       PRES   REMARKS
PADUCAH        FAIR      38  28  67 N3        30.42R
HENDERSON      FAIR      39  22  50 NE12      30.45R WCI  32
OWENSBORO      FAIR      40  22  48 NE10      30.44R WCI  33
HOPKINSVILLE   FAIR      36  30  78 NE9       30.40R WCI  29
BOWLING GREEN  FAIR      38  30  73 NE6       30.42R WCI  33
GLASGOW        NOT AVBL
$$

KYZ024-025-028>034-038-045-046-053-201300-
NORTH CENTRAL KENTUCKY

CITY           SKY/WX    TMP DP  RH WIND       PRES   REMARKS
LOUISVILLE/SDF FAIR      38  25  59 N6        30.45R WCI  33
LOUISVILLE/LOU FAIR      37  26  64 CALM      30.46R
FORT KNOX      FAIR      37  24  57 N7        30.44R WCI  32
$$

KYZ035>037-039>044-047>052-055>060-089>105-201300-
NORTHEAST KENTUCKY

CITY           SKY/WX    TMP DP  RH WIND       PRES   REMARKS
LEXINGTON      FAIR      37  28  70 N6        30.42R WCI  32
COVINGTON      FAIR      36  28  73 N8        30.44R WCI  30
FRANKFORT      FAIR      37  26  64 N7        30.42R WCI  32
$$

KYZ054-064>069-076>088-106>120-201300-
SOUTHEAST KENTUCKY

CITY           SKY/WX    TMP DP  RH WIND       PRES   REMARKS
JACKSON        FAIR      38  29  70 VRB5      30.39R WCI  34
LONDON         FAIR      31  31 100 CALM      30.39R
SOMERSET       NOT AVBL
MIDDLESBORO    FAIR      31  31 100 CALM      30.41S
MONTICELLO     FAIR      32  31  96 NW8       30.42R WCI  25
$$





USA.gov is the U.S. government's official web portal to all federal, state and local government web resources and services.